Regional Weather Roundup
Issued by NWS

Home | Current Version | Previous Version | Text Only | Print | Product List | Glossary On
Versions: 1 2 3 4 5 6 7 8 9 10 11 12 13 14 15 16 17 18 19 20 21 22 23 24 25 26 27 28 29 30 31 32 33 34 35 36 37 38 39 40 41 42 43 44 45 46 47 48 49 50
000
ASUS43 KBIS 230002
RWRND

NORTH DAKOTA REGIONAL WEATHER ROUNDUP
NATIONAL WEATHER SERVICE BISMARCK ND
700 PM CDT SAT APR 22 2017

NOTE: "FAIR" INDICATES FEW OR NO CLOUDS BELOW 12,000 FEET WITH NO
SIGNIFICANT WEATHER AND/OR OBSTRUCTIONS TO VISIBILITY.


NDZ001>003-009>011-017-230100-
NORTHWEST NORTH DAKOTA

CITY           SKY/WX    TMP DP  RH WIND       PRES   REMARKS
WILLISTON      CLOUDY    48  37  65 NE12      30.13F
6HR MIN TEMP:  48; 6HR MAX TEMP:  54;

MINOT          CLOUDY    41  35  79 N17       30.18S
MINOT AFB      LGT RAIN  39  33  80 NE14G21   30.18F
$$

NDZ018>021-031>035-040>046-230100-
SOUTHWEST NORTH DAKOTA

CITY           SKY/WX    TMP DP  RH WIND       PRES   REMARKS
BISMARCK       CLOUDY    63  44  50 NE17      30.06S
6HR MIN TEMP:  63; 6HR MAX TEMP:  71;

DICKINSON      CLOUDY    59  38  45 W12       30.05F
GARRISON         N/A     47  37  68 NE16G25   30.12S
6HR MIN TEMP:  47; 6HR MAX TEMP:  59;

HETTINGER ARPT CLOUDY    63  39  41 W10       30.08F
$$

NDZ004>008-012>016-024-026-027-054-230100-
NORTHEAST NORTH DAKOTA

CITY           SKY/WX    TMP DP  RH WIND       PRES   REMARKS
GRAND FORKS    CLOUDY    40  31  70 N21G31    30.19S
GRND FRKS AFB  CLOUDY    38  31  74 NE20      30.20R
DEVILS LAKE    LGT RAIN  36  27  69 NE20      30.21R
$$

NDZ022-023-025-028>030-036>039-047>053-230100-
SOUTHEAST NORTH DAKOTA

CITY           SKY/WX    TMP DP  RH WIND       PRES   REMARKS
FARGO          SUNNY     61  42  49 N22       30.07S
6HR MIN TEMP:  61; 6HR MAX TEMP:  71;

JAMESTOWN      FAIR      54  45  71 NE21G29   30.08R
$$




USA.gov is the U.S. government's official web portal to all federal, state and local government web resources and services.